Weather History for KBKF - April, 2013

Change the Weather History Date:

Friday, April 5, 2013

  Actual Average Record
Temperature  
Mean Temperature 58 °F -  
Max Temperature 69 °F 55 °F 75 °F (2011)
Min Temperature 48 °F 30 °F 17 °F (2009)
Degree Days  
Heating Degree Days 6    
Growing Degree Days 8 (Base 50)    
Moisture  
Dew Point 24 °F    
Average Humidity 29    
Maximum Humidity 47    
Minimum Humidity 15    
Precipitation  
Precipitation 0.00 in - - ()
Sea Level Pressure  
Sea Level Pressure 29.72 in    
Wind  
Wind Speed 12 mph (SSW)    
Max Wind Speed 24 mph    
Max Gust Speed 33 mph    
Visibility 10 miles    
Events      
Averages and records for this station are not official NWS values.
T = Trace of Precipitation, MM = Missing Value Source: NWS Daily Summary

Daily Weather History Graph

Daily Weather History Graph

Search for Another Location

Airport or City:

Trip Planner

Search our weather history database for the weather conditions in past years. The results will help you decide how hot, cold, wet, or windy it might be!

Date:

Astronomy

Apr. 05, 2013 Rise Set
Actual Time 6:36 AM MDT 7:27 PM MDT
Civil Twilight 6:09 AM MDT 7:54 PM MDT
Nautical Twilight 5:36 AM MDT 8:27 PM MDT
Astronomical Twilight 5:03 AM MDT 9:01 PM MDT
Moon 3:44 AM MDT 2:54 PM MDT
Length of Visible Light 13h 45m
Length of Day
12h 51m
Waning Crescent, 23% of the Moon is Illuminated
Apr 5
Waning Crescent
Apr 10
New
Apr 18
First Quarter
Apr 25
Full
May 2
Last Quarter

Hourly Weather History & Observations

Time (MDT) Temp. Dew Point Humidity Pressure Visibility Wind Dir Wind Speed Gust Speed Precip Events Conditions
12:55 AM 50.0 °F 23.0 °F 35% 29.87 in 10.0 mi South 13.8 mph - N/A   Mostly Cloudy
1:55 AM 51.8 °F 23.0 °F 33% 29.84 in 10.0 mi South 16.1 mph - N/A   Scattered Clouds
2:55 AM 51.8 °F 23.0 °F 33% 29.81 in 10.0 mi South 20.7 mph - N/A   Scattered Clouds
3:55 AM 51.8 °F 23.0 °F 33% 29.80 in 10.0 mi South 11.5 mph - N/A   Scattered Clouds
4:55 AM 48.2 °F 24.8 °F 40% 29.80 in 10.0 mi South 13.8 mph - N/A   Scattered Clouds
5:55 AM 48.2 °F 24.8 °F 40% 29.81 in 10.0 mi SSW 8.1 mph - N/A   Mostly Cloudy
6:55 AM 48.2 °F 24.8 °F 40% 29.81 in 10.0 mi SSW 10.4 mph - N/A   Mostly Cloudy
7:55 AM 50.0 °F 26.6 °F 40% 29.83 in 70.0 mi SSW 9.2 mph - N/A   Mostly Cloudy
8:55 AM 55.4 °F 24.8 °F 31% 29.81 in 70.0 mi SSW 9.2 mph - N/A   Mostly Cloudy
9:55 AM 59.0 °F 24.8 °F 27% 29.79 in 70.0 mi SSW 9.2 mph - N/A   Mostly Cloudy
10:55 AM 60.8 °F 23.0 °F 23% 29.77 in 70.0 mi SW 5.8 mph - N/A   Mostly Cloudy
11:55 AM 62.6 °F 21.2 °F 20% 29.73 in 70.0 mi ESE 3.5 mph - N/A   Mostly Cloudy
12:55 PM 68.0 °F 21.2 °F 17% 29.68 in 70.0 mi East 4.6 mph - N/A   Mostly Cloudy
1:55 PM 69.8 °F 19.4 °F 15% 29.62 in 70.0 mi East 3.5 mph - N/A   Mostly Cloudy
2:55 PM 69.8 °F 19.4 °F 15% 29.60 in 70.0 mi West 6.9 mph - N/A   Mostly Cloudy
3:55 PM 69.8 °F 19.4 °F 15% 29.57 in 70.0 mi West 4.6 mph - N/A   Mostly Cloudy
4:55 PM 68.0 °F 23.0 °F 18% 29.57 in 70.0 mi NNE 12.7 mph 18.4 mph N/A   Mostly Cloudy
5:55 PM 68.0 °F 24.8 °F 20% 29.56 in 70.0 mi NE 9.2 mph - N/A   Mostly Cloudy
6:55 PM 66.2 °F 28.4 °F 24% 29.57 in 70.0 mi East 3.5 mph - N/A   Mostly Cloudy
7:55 PM 60.8 °F 28.4 °F 29% 29.59 in 25.0 mi NNE 8.1 mph - N/A   Mostly Cloudy
8:55 PM 60.8 °F 26.6 °F 27% 29.66 in 25.0 mi WNW 23.0 mph 33.4 mph N/A   Mostly Cloudy
9:55 PM 51.8 °F 32.0 °F 47% 29.70 in 25.0 mi West 24.2 mph 29.9 mph N/A   Mostly Cloudy
10:55 PM 51.8 °F 32.0 °F 47% 29.71 in 10.0 mi West 20.7 mph 25.3 mph N/A   Mostly Cloudy
11:55 PM 51.8 °F 26.6 °F 38% 29.72 in 10.0 mi West 21.9 mph - N/A   Mostly Cloudy